Location: Unspecified
(0.0000°N, 0.0000°E)
Time: 14:07:47
(UTC+00:00)

Hubble Space Telescope - Pass Details

Date: 18 May 2022
Orbit: 533 x 537 km, 28.5° (Epoch: 19 May)

Event Time Altitude Azimuth Distance (km) Brightness Sun altitude
Rises 20:10:55 0° 305° (NW) 2,656 5.4 -31.4°
Reaches altitude 10° 20:13:11 10° 308° (NW) 1,769 4.2 -31.9°
Enters shadow 20:14:29 19° 312° (NW) 1,279 3.3 -32.2°
